リニア彗星

230P/LINEAR (2015)

English version
Home page
Updated on May 22, 2017

---------------------------------------------------------------------

・ プロフィール

・ 写真集

・ 軌道要素

Epoch 2015 June 27.0 TT = JDT 2457200.5
T 2015 Nov. 18.06524 TT                                 MPCW
q   1.4852895            (2000.0)            P               Q
n   0.15723009     Peri.  308.91309     +0.45667843     -0.85833737
a   3.3997392      Node   112.39649     +0.87428809     +0.38439781
e   0.5631166      Incl.   14.65306     +0.16451492     +0.33984598
P   6.27
From 404 observations 1997 Jan. 10-2015 Sept. 26, mean residual 0".5.

・ 星図

・ 光度変化

        m1 = 13.0 + 5 logΔ + 15.0 log r(t - 35)  [   ,190]  (              〜2016年 5月26日)
        H = 15.0  G = 0.15                        [190,   ]  (2016年 5月26日〜              )

---------------------------------------------------------------------

軌道要素はM.P.E.C. 2015-S97に掲載されたものです。
星図はステラナビゲータ Ver.8 (アストロアーツ) で作成したものです。
光度グラフはComet for Windowsで作成したものです。

---------------------------------------------------------------------

Copyright(C) Seiichi Yoshida (comet@aerith.net). All rights reserved.